Home   Weather   Southampton   Past weeks

Flag for United Kingdom Past Weather in Southampton, England, United Kingdom — Yesterday and Last 2 Weeks

Now
54 °F

Fog.


Feels Like: 50 °F
Forecast: 52 / 57 °F
Wind: 13 mph from Southwest

Location: Boscombe Down

Current Time: Dec 9, 2016 at 3:57:46 am

Latest Report: Dec 9, 2016 at 2:50 am


Visibility: 2 mi

Pressure: 30.30 "Hg

Humidity: 100%

Dew Point: 54 °F

Location of SouthamptonLocation

Past Weather in Southampton — Graph

°F

Southampton Temperature Yesterday

Maximum temperature yesterday: 55 °F (at 12:50 pm)
Minimum temperature yesterday: 52 °F (at 1:50 am)
Average temperature yesterday: 53 °F

High & Low Weather Summary for the Past Weeks

 TemperatureHumidityPressure
High55 °F (Dec 7, 1:50 pm)100% (Nov 26, 12:50 am)30.57 "Hg (Nov 26, 12:50 am)
Low23 °F (Nov 30, 5:50 am)43% (Nov 28, 1:50 pm)30.09 "Hg (Nov 24, 1:50 am)
Average41 °F86%30.28 "Hg
* Reported Nov 24 1:50 am — Dec 9 1:50 am, Southampton, Weather by CustomWeather, © 2016

Note: Actual official high and low records may vary slightly from our data, if they occured in-between our weather recording intervals... More about our weather records

Advertising

Southampton Weather History for the Previous 24 Hours

Scroll right to see more
 ConditionsComfort  
Time TempWeatherWind HumidityBarometerVisibility
1:50 am
Fri, Dec 9
54 °FPassing clouds.14 mph100%30.27 "Hg1 mi
12:50 am54 °FFog.8 mph100%30.30 "Hg1 mi
11:50 pm
Thu, Dec 8
54 °FFog.7 mph100%30.30 "Hg0 mi
10:50 pm54 °FFog.9 mph100%30.30 "Hg1 mi
9:50 pm54 °FPassing clouds.9 mph100%30.30 "Hg1 mi
8:50 pm54 °FFog.10 mph100%30.30 "Hg0 mi
7:50 pm54 °FFog.12 mph100%30.30 "Hg0 mi
6:50 pm54 °FFog.2 mph94%30.30 "Hg1 mi
5:50 pm54 °FFog.5 mph100%30.30 "Hg1 mi
4:50 pm54 °FFog.9 mph100%30.27 "Hg1 mi
3:50 pm54 °FFog.7 mph100%30.27 "Hg3 mi
2:50 pm55 °FPartly sunny.8 mph94%30.24 "HgN/A
1:50 pm55 °FPartly sunny.12 mph94%30.24 "HgN/A
12:50 pm55 °FPartly sunny.15 mph94%30.24 "HgN/A
11:50 am54 °FPartly sunny.14 mph100%30.24 "HgN/A
10:50 am54 °FDrizzle. Cloudy.17 mph100%30.24 "Hg2 mi
9:50 am54 °FDrizzle. Mostly cloudy.16 mph100%30.24 "Hg4 mi
8:50 am52 °FDrizzle. Mostly cloudy.13 mph100%30.24 "Hg3 mi
7:50 am52 °FMostly cloudy.12 mph94%30.24 "HgN/A
6:50 am52 °FMostly cloudy.13 mph94%30.24 "HgN/A
5:50 am52 °FPassing clouds.10 mph94%30.24 "HgN/A
4:50 am52 °FLow clouds.12 mph94%30.24 "HgN/A
3:50 am52 °FPassing clouds.8 mph94%30.27 "HgN/A
Weather by CustomWeather, © 2016

See weather overviewHow to use our weather pages